5 day graph

You are here

Hive Data

Page: 1 of 16645  Records: 998690

Row Date Time Hive Temp Hive Humidity Outside Temp Outside Humidity Bottom Board Temp Outside Wall Temp Electronics Temp Light Levels inHG Fan Heat Cover Notes
Clear Sorted By: Outside Wall Temp ascending, Outside Temp ascending, Bottom Board Temp ascending, Cover ascending, Row descending
View 382231 Mar 1 2015 6:08:24am 66.74 52 28.4 82 34.25 -196.6 51.8 272 29.5 0 0 0 NA
View 382230 Mar 1 2015 6:07:23am 66.74 50 28.4 82 34.25 -196.6 51.8 273 29.5 0 0 0 NA
View 382229 Mar 1 2015 6:06:22am 66.74 47 28.4 82 34.25 -196.6 51.8 273 29.5 0 0 0 NA
View 382228 Mar 1 2015 6:05:20am 66.74 45 28.4 82 34.25 -196.6 51.8 273 29.5 0 0 0 NA
View 382227 Mar 1 2015 6:04:19am 66.74 46 28.4 82 34.25 -196.6 51.8 273 29.5 0 0 0 NA
View 382226 Mar 1 2015 6:03:18am 66.56 47 28.4 82 34.25 -196.6 51.8 272 29.5 0 0 0 NA
View 382225 Mar 1 2015 6:02:17am 66.56 47 28.4 82 34.25 -196.6 51.8 272 29.5 0 0 0 NA
View 382224 Mar 1 2015 6:01:15am 66.56 48 28.4 82 34.25 -196.6 51.8 272 29.5 0 0 0 NA
View 382223 Mar 1 2015 6:00:14am 66.56 43 28.4 82 34.25 -196.6 51.8 272 29.5 0 0 0 NA
View 382222 Mar 1 2015 5:59:13am 66.38 46 28.4 82 34.25 -196.6 51.8 272 29.5 0 0 0 NA
View 382221 Mar 1 2015 5:58:12am 66.56 42 28.4 81 34.25 -196.6 51.8 272 29.5 0 0 0 NA
View 382220 Mar 1 2015 5:57:10am 66.56 43 28.4 81 34.25 -196.6 51.8 272 29.5 0 0 0 NA
View 382219 Mar 1 2015 5:56:09am 66.56 45 28.4 81 34.25 -196.6 51.8 272 29.5 0 0 0 NA
View 382218 Mar 1 2015 5:55:08am 66.56 44 28.4 81 34.25 -196.6 51.8 272 29.5 0 0 0 NA
View 382215 Mar 1 2015 5:52:06am 66.74 42 28.4 82 34.25 -196.6 51.8 272 29.5 0 0 0 NA
View 382214 Mar 1 2015 5:51:04am 66.74 43 28.4 82 34.25 -196.6 51.8 271 29.5 0 0 0 NA
View 382213 Mar 1 2015 5:50:03am 66.74 42 28.4 82 34.25 -196.6 51.8 271 29.5 0 0 0 NA
View 382212 Mar 1 2015 5:49:02am 66.74 47 28.4 81 34.25 -196.6 51.8 271 29.5 0 0 0 NA
View 382211 Mar 1 2015 5:48:01am 66.74 45 28.4 81 34.25 -196.6 51.8 272 29.5 0 0 0 NA
View 382210 Mar 1 2015 5:46:59am 66.74 41 28.4 81 34.25 -196.6 51.8 271 29.5 0 0 0 NA
View 382209 Mar 1 2015 5:45:58am 66.92 43 28.4 81 34.7 -196.6 51.8 271 29.51 0 0 0 NA
View 382208 Mar 1 2015 5:44:58am 66.92 41 28.4 81 34.7 -196.6 51.8 271 29.51 0 0 0 NA
View 382207 Mar 1 2015 5:43:57am 66.92 42 28.4 81 34.7 -196.6 51.8 272 29.51 0 0 0 NA
View 382206 Mar 1 2015 5:42:56am 66.92 39 28.4 81 34.7 -196.6 51.8 271 29.51 0 0 0 NA
View 382205 Mar 1 2015 5:41:54am 66.92 48 28.4 81 34.7 -196.6 51.8 271 29.51 0 0 0 NA
View 382204 Mar 1 2015 5:40:53am 66.92 43 28.4 81 34.7 -196.6 51.8 271 29.51 0 0 0 NA
View 382203 Mar 1 2015 5:39:52am 66.92 40 28.4 81 34.7 -196.6 51.8 271 29.5 0 0 0 NA
View 382202 Mar 1 2015 5:38:51am 66.92 45 28.4 81 34.7 -196.6 51.8 271 29.51 0 0 0 NA
View 382201 Mar 1 2015 5:37:49am 67.1 41 28.4 80 34.7 -196.6 51.8 271 29.51 0 0 0 NA
View 382199 Mar 1 2015 5:35:47am 66.92 45 28.4 80 34.7 -196.6 51.8 271 29.5 0 0 0 NA
View 382198 Mar 1 2015 5:34:46am 67.1 44 28.4 80 34.7 -196.6 51.8 271 29.5 0 0 0 NA
View 382197 Mar 1 2015 5:33:46am 67.1 43 28.4 80 34.7 -196.6 51.8 271 29.5 0 0 0 NA
View 382195 Mar 1 2015 5:31:43am 67.1 41 28.4 81 34.7 -196.6 51.8 271 29.5 0 0 0 NA
View 382193 Mar 1 2015 5:29:41am 67.1 41 28.4 81 34.7 -196.6 51.8 270 29.5 0 0 0 NA
View 382192 Mar 1 2015 5:28:40am 67.1 44 28.4 81 34.7 -196.6 51.8 271 29.5 0 0 0 NA
View 382191 Mar 1 2015 5:27:38am 67.1 44 28.4 81 34.7 -196.6 51.8 271 29.5 0 0 0 NA
View 382190 Mar 1 2015 5:26:37am 67.1 46 28.4 81 34.7 -196.6 51.8 271 29.5 0 0 0 NA
View 382189 Mar 1 2015 5:25:36am 66.92 47 28.4 81 34.7 -196.6 51.8 271 29.5 0 0 0 NA
View 382188 Mar 1 2015 5:24:34am 66.92 45 28.4 81 34.7 -196.6 53.6 271 29.5 0 0 0 NA
View 382187 Mar 1 2015 5:23:33am 66.92 45 28.4 81 34.7 -196.6 53.6 270 29.5 0 0 0 NA
View 382186 Mar 1 2015 5:22:33am 66.92 42 28.4 81 34.7 -196.6 53.6 271 29.5 0 0 0 NA
View 382185 Mar 1 2015 5:21:32am 66.92 40 28.4 81 35.15 -196.6 53.6 271 29.5 0 0 0 NA
View 382184 Mar 1 2015 5:20:31am 66.92 39 28.4 81 35.15 -196.6 53.6 271 29.5 0 0 0 NA
View 382183 Mar 1 2015 5:19:30am 67.1 40 28.4 81 35.15 -196.6 53.6 271 29.5 0 0 0 NA
View 382182 Mar 1 2015 5:18:28am 67.1 40 28.4 81 35.15 -196.6 53.6 271 29.5 0 0 0 NA
View 382252 Mar 1 2015 6:29:48am 66.92 42 28.58 81 34.25 -196.6 51.8 273 29.5 0 0 0 NA
View 382251 Mar 1 2015 6:28:47am 67.1 48 28.58 81 34.25 -196.6 51.8 273 29.5 0 0 0 NA
View 382250 Mar 1 2015 6:27:45am 67.1 48 28.58 81 34.25 -196.6 51.8 273 29.5 0 0 0 NA
View 382249 Mar 1 2015 6:26:44am 67.1 44 28.58 81 34.25 -196.6 51.8 273 29.5 0 0 0 NA
View 382248 Mar 1 2015 6:25:43am 67.1 46 28.58 81 34.25 -196.6 51.8 272 29.5 0 0 0 NA
View 382247 Mar 1 2015 6:24:41am 66.92 50 28.58 82 34.25 -196.6 51.8 273 29.5 0 0 0 NA
View 382246 Mar 1 2015 6:23:40am 66.92 55 28.58 81 34.25 -196.6 51.8 273 29.5 0 0 0 NA
View 382245 Mar 1 2015 6:22:39am 66.74 49 28.58 81 34.25 -196.6 51.8 273 29.5 0 0 0 NA
View 382244 Mar 1 2015 6:21:38am 66.74 50 28.58 82 34.25 -196.6 51.8 272 29.5 0 0 0 NA
View 382243 Mar 1 2015 6:20:36am 66.74 46 28.58 82 34.25 -196.6 51.8 273 29.5 0 0 0 NA
View 382242 Mar 1 2015 6:19:37am 66.74 48 28.58 82 34.25 -196.6 51.8 273 29.5 0 0 0 NA
View 382241 Mar 1 2015 6:18:35am 66.56 44 28.58 82 34.25 -196.6 51.8 272 29.5 0 0 0 NA
View 382240 Mar 1 2015 6:17:34am 66.74 43 28.58 82 34.25 -196.6 51.8 273 29.5 0 0 0 NA
View 382239 Mar 1 2015 6:16:33am 66.92 42 28.58 82 34.25 -196.6 51.8 272 29.5 0 0 0 NA
View 382238 Mar 1 2015 6:15:32am 66.92 42 28.58 81 34.25 -196.6 51.8 273 29.5 0 0 0 NA